Regional Weather Roundup
Issued by NWS Columbia, SC

Home | Current Version | Previous Version | Text Only | Print | Product List | Glossary On
Versions: 1 2 3 4 5 6 7 8 9 10 11 12 13 14 15 16 17 18 19 20 21 22 23 24 25 26 27
000
ASUS42 KCAE 261410
RWRCAE
REGIONAL WEATHER ROUNDUP
NATIONAL WEATHER SERVICE COLUMBIA SC
1000 AM EDT WED JUL 26 2017

NOTE: "FAIR" INDICATES FEW OR NO CLOUDS BELOW 12,000 FEET WITH NO
SIGNIFICANT WEATHER AND/OR OBSTRUCTIONS TO VISIBILITY.

NOT ALL STATIONS ARE QUALITY CONTROLLED BY THE NATIONAL
WEATHER SERVICE. USE DATA WITH CAUTION...ESPECIALLY
DEWPOINT OBSERVATIONS.

SCZ001>056-GAZ040-063>065-077-261500-
...UPSTATE SOUTH CAROLINA...

CITY           SKY/WX    TMP DP  RH WIND       PRES   REMARKS
ANDERSON       MOSUNNY   81  72  74 E12       30.15F
LIBERTY        MOSUNNY   79  71  77 NE8       30.18R HAZE
SPARTANBURG    CLOUDY    77  68  73 N9        30.18R
CLEMSON        PTSUNNY   81  74  79 NE3       30.17S
GREENVILLE     MOSUNNY   80  69  69 NE12      30.19R
GREENWOOD      SUNNY     82  72  71 CALM      30.15F
GREER          CLOUDY    76  69  79 NE13      30.18R
ROCK HILL      CLOUDY    77  71  82 NE5       30.19R
CHESTER        CLOUDY    75  73  94 E6        30.18S FOG
LAURENS        MOSUNNY   81  72  74 E5        30.15S


...CENTRAL SOUTH CAROLINA...

CITY           SKY/WX    TMP DP  RH WIND       PRES   REMARKS
COLUMBIA APT   CLOUDY    82  74  76 E12       30.12S
COLUMBIA OWENS CLOUDY    79  75  87 VRB7      30.14S
MCENTIRE ANGB  CLOUDY    77  75  94 NE7       30.14R
ORANGEBURG     MOSUNNY   81  73  76 E7        30.12S
SUMTER SHAW    CLOUDY    78  74  88 E7        30.11F FOG
NEWBERRY       SUNNY     81  72  74 E7        30.17S
AIKEN          FAIR      79  72  78 N6        30.16S
BARNWELL       PTSUNNY   84  73  70 CALM      30.11F
MANNING        CLOUDY    79  75  89 CALM      30.12S
CAMDEN         CLOUDY    81  73  78 E12       30.14F
LANCASTER      PTSUNNY   79  75  89 E10       30.16F
WINNSBORO      CLOUDY    77  72  83 E6        30.15S


...EASTERN AND COASTAL SOUTH CAROLINA...

CITY           SKY/WX    TMP DP  RH WIND       PRES   REMARKS
MYRTLE BEACH   PTSUNNY   82  75  78 E12       30.12F
N MYRTLE BCH   CLOUDY    81  75  82 E7        30.12S
CONWAY         PTSUNNY   81  75  83 NE6       30.12F HAZE
MARION         CLOUDY    79  72  78 E6        30.14S
HARTSVILLE     CLOUDY    79  72  78 E7        30.14S
FLORENCE       PTSUNNY   81  76  84 E8        30.13F
DARLINGTON     MOSUNNY   80  74  81 E9        30.14F
CHARLESTON APT CLOUDY    79  74  84 CALM      30.10S
MOUNT PLEASANT FAIR      79  77  94 CALM      30.10F FOG
BEAUFORT       CLOUDY    81  76  84 CALM      30.11S


...EASTERN GEORGIA...

CITY           SKY/WX    TMP DP  RH WIND       PRES   REMARKS
AUGUSTA BUSH F CLOUDY    81  74  79 E3        30.11F
AUGUSTA DANIEL CLOUDY    83  71  67 N7        30.13S
THOMSON        CLOUDY    79  73  81 NE3       30.17F
WASHINGTON     CLOUDY   N/A N/A N/A CALM      30.13F
CLAXTON        FAIR      81  74  79 CALM      30.12S
SYLVANIA       CLOUDY    78  76  94 CALM      30.13S
STATESBORO     CLOUDY    77  77 100 CALM      30.12S
SAVANNAH       CLOUDY    78  73  84 CALM      30.11S


...SOUTHERN NORTH CAROLINA...

CITY           SKY/WX    TMP DP  RH WIND       PRES   REMARKS
CHARLOTTE      CLOUDY    76  71  85 E7        30.20R
MONROE         CLOUDY    74  69  85 E6        30.18R
ROCKINGHAM     MOSUNNY   79  69  73 E5        30.16S
RUTHERFORDTON  CLOUDY    74  69  86 N5        30.23R
ASHEVILLE      CLOUDY    71  69  93 CALM      30.26S FOG

$$




USA.gov is the U.S. government's official web portal to all federal, state and local government web resources and services.